FW8733 Weather Reports


Display with metric or nautical units.
time (UTC)temp
F
wind
direction
speed
MPH
gust
MPH
rain 1hr
in
rain 24hr
in
rain mn
in
humidity
%
barometer
mb
20260904151752 83 203 0.0 1.0 0.00 0.00 0.00 85 1018.0
20260904151251 82 190 3.0 3.0 0.00 0.00 0.00 86 1018.0
20260904150748 82 260 0.0 1.0 0.00 0.00 0.00 87 1018.2
20260904150243 82 206 1.0 1.0 0.00 0.00 0.00 87 1018.2
20260904145740 82 187 0.0 1.0 0.00 0.00 0.00 88 1018.2
20260904145236 82 211 1.0 2.0 0.00 0.00 0.00 88 1018.2
20260904144732 82 214 0.0 0.0 0.00 0.00 0.00 89 1018.3
20260904144227 82 222 1.0 1.0 0.00 0.00 0.00 89 1018.5
20260904143722 81 212 0.0 0.0 0.00 0.00 0.00 90 1018.5
20260904143220 81 216 0.0 1.0 0.00 0.00 0.00 91 1018.3
20260904142716 81 212 1.0 1.0 0.00 0.00 0.00 91 1018.4
20260904142211 81 199 0.0 0.0 0.00 0.00 0.00 92 1018.5
20260904141711 81 198 0.0 1.0 0.00 0.00 0.00 93 1018.3
20260904141207 81 197 1.0 2.0 0.00 0.00 0.00 92 1018.3
20260904140702 81 213 1.0 1.0 0.00 0.00 0.00 92 1018.2
20260904140157 81 213 1.0 1.0 0.00 0.00 0.00 92 1018.3
20260904135656 80 213 0.0 1.0 0.00 0.00 0.00 92 1018.3
20260904135152 80 176 2.0 2.0 0.00 0.00 0.00 92 1018.3
20260904134648 80 187 1.0 1.0 0.00 0.00 0.00 93 1018.1
20260904134146 80 215 1.0 1.0 0.00 0.00 0.00 93 1018.1
20260904133642 80 178 2.0 2.0 0.00 0.00 0.00 93 1018.3
20260904133138 80 210 2.0 2.0 0.00 0.00 0.00 93 1018.3
20260904132637 80 212 1.0 1.0 0.00 0.00 0.00 93 1018.1
20260904132132 80 213 0.0 0.0 0.00 0.00 0.00 94 1018.3
20260904131631 80 212 1.0 2.0 0.00 0.00 0.00 94 1018.1
20260904131128 79 213 1.0 2.0 0.00 0.00 0.00 94 1018.1
20260904130627 79 212 0.0 0.0 0.00 0.00 0.00 94 1018.2
20260904130122 79 213 0.0 0.0 0.00 0.00 0.00 94 1018.1
20260904125618 79 212 1.0 1.0 0.00 0.00 0.00 94 1017.9
20260904125113 79 212 1.0 1.0 0.00 0.00 0.00 94 1017.7
20260904124608 79 225 0.0 0.0 0.00 0.00 0.00 94 1017.7
20260904124104 79 213 0.0 0.0 0.00 0.00 0.00 94 1017.7
20260904123603 79 212 1.0 2.0 0.00 0.00 0.00 94 1017.7
20260904123059 79 196 2.0 2.0 0.00 0.00 0.00 94 1017.4
20260904122554 79 189 1.0 2.0 0.00 0.00 0.00 94 1017.5
20260904122049 79 194 2.0 2.0 0.00 0.00 0.00 94 1017.7
20260904121544 79 184 3.0 3.0 0.00 0.00 0.00 94 1017.3
20260904121040 79 213 0.0 0.0 0.00 0.00 0.00 94 1017.2
20260904120536 79 209 1.0 1.0 0.00 0.00 0.00 94 1017.1
20260904120031 79 185 4.0 5.0 0.00 0.00 0.00 94 1017.1
20260904115527 79 185 2.0 3.0 0.00 0.00 0.00 95 1016.6
20260904115027 79 187 2.0 3.0 0.00 0.00 0.00 95 1016.7
20260904114522 79 166 3.0 3.0 0.00 0.00 0.00 95 1017.0
20260904114021 79 184 3.0 5.0 0.00 0.00 0.00 95 1016.7
20260904113516 79 212 0.0 0.0 0.00 0.00 0.00 95 1016.8
20260904113016 79 139 2.0 2.0 0.00 0.00 0.00 94 1016.4
20260904112511 79 171 1.0 2.0 0.00 0.00 0.00 94 1016.7
20260904112007 79 173 3.0 3.0 0.00 0.00 0.00 93 1016.6
20260904111503 79 209 0.0 0.0 0.00 0.00 0.00 92 1016.7
20260904110958 79 165 3.0 3.0 0.00 0.00 0.00 92 1016.5
20260904110457 80 209 1.0 1.0 0.00 0.00 0.00 92 1016.7
20260904105952 80 192 1.0 1.0 0.00 0.00 0.00 92 1016.6
20260904105452 80 212 1.0 2.0 0.00 0.00 0.00 92 1016.4
20260904104947 80 211 1.0 2.0 0.00 0.00 0.00 92 1016.5
20260904104442 80 211 0.0 0.0 0.00 0.00 0.00 92 1016.3
20260904103938 80 191 1.0 2.0 0.00 0.00 0.00 91 1016.4
20260904103434 80 211 0.0 0.0 0.00 0.00 0.00 91 1016.3
20260904102930 80 188 2.0 2.0 0.00 0.00 0.00 91 1016.3
20260904102425 80 212 2.0 2.0 0.00 0.00 0.00 91 1016.3
20260904101921 80 189 1.0 1.0 0.00 0.00 0.00 91 1016.3
20260904101417 80 208 1.0 1.0 0.00 0.00 0.00 91 1016.4
20260904100913 80 207 1.0 1.0 0.00 0.00 0.00 91 1016.3
20260904100409 80 207 1.0 1.0 0.00 0.00 0.00 91 1016.1
20260904095908 80 210 0.0 1.0 0.00 0.00 0.00 91 1016.3
20260904095403 80 207 1.0 1.0 0.00 0.00 0.00 91 1016.3
20260904094858 80 207 0.0 0.0 0.00 0.00 0.00 91 1016.2
20260904094353 80 209 1.0 2.0 0.00 0.00 0.00 90 1016.2
20260904093850 80 209 0.0 1.0 0.00 0.00 0.00 90 1016.2
20260904093349 80 207 2.0 3.0 0.00 0.00 0.00 90 1016.3
20260904092845 80 177 2.0 2.0 0.00 0.00 0.00 90 1015.9
20260904092342 80 205 1.0 1.0 0.00 0.00 0.00 90 1015.8
20260904091837 80 211 2.0 2.0 0.00 0.00 0.00 90 1016.0
20260904091333 80 206 1.0 1.0 0.00 0.00 0.00 90 1015.9
20260904090827 80 205 0.0 1.0 0.00 0.00 0.00 89 1016.3
20260904090324 80 205 1.0 1.0 0.00 0.00 0.00 89 1016.2
20260904085818 80 219 0.0 0.0 0.00 0.00 0.00 89 1016.1
20260904085314 80 203 0.0 1.0 0.00 0.00 0.00 89 1016.3
20260904084808 80 219 0.0 0.0 0.00 0.00 0.00 89 1016.2
20260904084304 80 208 0.0 2.0 0.00 0.00 0.00 89 1016.1
20260904083800 80 203 0.0 1.0 0.00 0.00 0.00 89 1016.3
20260904083256 80 220 0.0 0.0 0.00 0.00 0.00 89 1016.1
20260904082751 80 220 0.0 0.0 0.00 0.00 0.00 89 1016.1
20260904082245 80 203 0.0 1.0 0.00 0.00 0.00 89 1016.2
20260904081741 80 203 0.0 1.0 0.00 0.00 0.00 89 1016.1
20260904081237 80 199 1.0 2.0 0.00 0.00 0.00 89 1016.3
20260904080732 80 200 1.0 2.0 0.00 0.00 0.00 89 1016.2
20260904080228 80 209 1.0 1.0 0.00 0.00 0.00 89 1016.2
20260904075724 80 186 3.0 3.0 0.00 0.00 0.00 89 1016.2
20260904075219 80 184 3.0 5.0 0.00 0.00 0.00 88 1016.3
20260904074718 80 206 0.0 1.0 0.00 0.00 0.00 88 1015.9
20260904074212 80 199 2.0 3.0 0.00 0.00 0.00 88 1016.3
20260904073708 80 216 2.0 2.0 0.00 0.00 0.00 88 1016.3
20260904073204 80 201 3.0 3.0 0.00 0.00 0.00 87 1016.1
20260904072700 80 203 0.0 0.0 0.00 0.00 0.00 87 1016.2
20260904072154 80 167 1.0 2.0 0.00 0.00 0.00 87 1016.3
20260904071650 80 198 3.0 3.0 0.00 0.00 0.00 87 1016.3
20260904071145 81 199 1.0 2.0 0.00 0.00 0.00 86 1016.4
20260904070644 81 176 2.0 2.0 0.00 0.00 0.00 86 1016.6
20260904070143 81 159 4.0 6.0 0.00 0.00 0.00 86 1016.6
20260904065638 81 223 0.0 1.0 0.00 0.00 0.00 85 1016.7
20260904065136 81 163 3.0 3.0 0.00 0.00 0.00 85 1016.7
20260904064631 81 162 4.0 5.0 0.00 0.00 0.00 85 1016.7
20260904064131 81 198 3.0 3.0 0.00 0.00 0.00 85 1016.7
20260904063627 81 223 0.0 0.0 0.00 0.00 0.00 85 1016.5
20260904063122 81 217 0.0 0.0 0.00 0.00 0.00 84 1016.6
20260904062618 81 162 2.0 3.0 0.00 0.00 0.00 85 1016.7
20260904062113 81 211 1.0 1.0 0.00 0.00 0.00 84 1016.4
20260904061609 81 199 0.0 0.0 0.00 0.00 0.00 84 1016.4
20260904061105 81 181 4.0 6.0 0.00 0.00 0.00 84 1016.3
20260904060601 81 201 1.0 1.0 0.00 0.00 0.00 84 1016.6
20260904060057 81 204 1.0 1.0 0.00 0.00 0.00 84 1016.5
20260904055552 81 177 3.0 3.0 0.00 0.00 0.00 83 1016.4
20260904055047 81 130 3.0 6.0 0.00 0.00 0.00 84 1016.3
20260904054543 81 187 3.0 3.0 0.00 0.00 0.00 84 1016.4
20260904054039 81 203 1.0 2.0 0.00 0.00 0.00 84 1016.3
20260904053538 81 153 2.0 3.0 0.00 0.00 0.00 83 1016.4
20260904053034 81 201 3.0 3.0 0.00 0.00 0.00 83 1016.2
20260904052530 81 187 2.0 2.0 0.00 0.00 0.00 84 1016.3
20260904052026 81 156 1.0 3.0 0.00 0.00 0.00 84 1016.2
20260904051522 81 183 1.0 1.0 0.00 0.00 0.00 83 1016.3
20260904051021 81 203 3.0 5.0 0.00 0.00 0.00 83 1015.9
20260904050517 81 200 5.0 6.0 0.00 0.00 0.00 83 1016.1
20260904050013 81 129 3.0 5.0 0.00 0.00 0.00 82 1016.0
20260904045508 81 178 5.0 7.0 0.00 0.00 0.00 82 1016.1
20260904045003 81 110 3.0 5.0 0.00 0.00 0.00 82 1016.2
20260904044458 81 186 6.0 7.0 0.00 0.00 0.00 82 1016.2
20260904043955 81 150 5.0 6.0 0.00 0.00 0.00 82 1016.1
20260904043451 81 152 1.0 1.0 0.00 0.00 0.00 82 1016.2
20260904042946 81 195 3.0 5.0 0.00 0.00 0.00 82 1016.1
20260904042443 81 203 1.0 1.0 0.00 0.00 0.00 81 1016.1
20260904041937 81 207 4.0 6.0 0.00 0.00 0.00 81 1016.1
20260904041434 81 181 3.0 3.0 0.00 0.00 0.00 81 1016.2
20260904040930 82 174 2.0 2.0 0.00 0.00 0.00 81 1016.2
20260904040429 82 177 4.0 6.0 0.00 0.00 0.00 81 1016.0
20260904035925 82 234 2.0 2.0 0.00 0.00 0.00 80 1016.0
20260904035421 82 167 2.0 3.0 0.00 0.00 0.00 80 1015.9
20260904034920 82 147 6.0 7.0 0.00 0.00 0.00 80 1016.0
20260904034415 82 137 4.0 7.0 0.00 0.00 0.00 79 1015.8
20260904033911 82 190 3.0 5.0 0.00 0.00 0.00 79 1015.9
20260904033408 82 183 5.0 6.0 0.00 0.00 0.00 78 1016.0
20260904032903 82 200 4.0 5.0 0.00 0.00 0.00 78 1015.7
20260904032358 83 163 3.0 3.0 0.00 0.00 0.00 78 1015.7
20260904031852 83 169 6.0 7.0 0.00 0.00 0.00 77 1015.9
20260904031348 83 167 5.0 6.0 0.00 0.00 0.00 77 1015.9
20260904030844 83 206 3.0 6.0 0.00 0.00 0.00 76 1015.8
20260904030339 83 188 3.0 6.0 0.00 0.00 0.00 76 1015.8
20260904025835 83 128 6.0 7.0 0.00 0.00 0.00 75 1015.9
20260904025331 84 165 4.0 5.0 0.00 0.00 0.00 75 1015.6
20260904024830 84 167 4.0 6.0 0.00 0.00 0.00 74 1015.6
20260904024325 84 181 3.0 6.0 0.00 0.00 0.00 74 1015.6
20260904023822 84 203 5.0 6.0 0.00 0.00 0.00 73 1015.3
20260904023318 84 208 4.0 5.0 0.00 0.00 0.00 73 1015.2
20260904022816 84 136 5.0 6.0 0.00 0.00 0.00 72 1015.2
20260904022314 84 187 4.0 6.0 0.00 0.00 0.00 72 1015.2
20260904021810 85 167 5.0 7.0 0.00 0.00 0.00 72 1015.3
20260904021310 85 189 6.0 7.0 0.00 0.00 0.00 71 1015.2
20260904020805 85 199 2.0 2.0 0.00 0.00 0.00 71 1015.2
20260904020300 85 162 6.0 7.0 0.00 0.00 0.00 71 1014.9
20260904015758 85 201 3.0 5.0 0.00 0.00 0.00 71 1015.1
20260904015254 85 187 5.0 7.0 0.00 0.00 0.00 70 1014.9
20260904014752 85 177 2.0 2.0 0.00 0.00 0.00 70 1014.9
20260904014248 85 205 2.0 3.0 0.00 0.00 0.00 70 1015.0
20260904013744 86 193 4.0 5.0 0.00 0.00 0.00 69 1014.9
20260904013240 86 171 2.0 3.0 0.00 0.00 0.00 69 1014.6
20260904012736 86 191 4.0 5.0 0.00 0.00 0.00 69 1014.4
20260904012235 86 201 4.0 8.0 0.00 0.00 0.00 69 1014.3
20260904011734 86 200 4.0 7.0 0.00 0.00 0.00 68 1014.4
20260904011230 86 191 3.0 7.0 0.00 0.00 0.00 68 1014.4
20260904010725 87 198 5.0 6.0 0.00 0.00 0.00 68 1014.3
20260904010221 87 186 5.0 7.0 0.00 0.00 0.00 67 1014.3
20260904005716 87 156 7.0 10.0 0.00 0.00 0.00 67 1014.3
20260904005212 87 207 12.0 15.0 0.00 0.00 0.00 67 1014.4
20260904004712 87 147 4.0 5.0 0.00 0.00 0.00 67 1014.4
20260904004207 87 187 7.0 9.0 0.00 0.00 0.00 67 1014.3
20260904003702 88 211 0.0 1.0 0.00 0.00 0.00 67 1014.5
20260904003159 88 155 5.0 6.0 0.00 0.00 0.00 66 1014.4
20260904002654 88 152 4.0 5.0 0.00 0.00 0.00 66 1014.5
20260904002150 88 183 6.0 9.0 0.00 0.00 0.00 65 1014.4
20260904001645 89 174 6.0 7.0 0.00 0.00 0.00 64 1014.4
20260904001143 89 149 7.0 11.0 0.00 0.00 0.00 64 1014.2
20260904000639 89 203 4.0 6.0 0.00 0.00 0.00 64 1014.1
20260904000134 90 187 5.0 10.0 0.00 0.00 0.00 65 1014.1
20260903235634 90 120 8.0 11.0 0.00 0.00 0.00 64 1013.8
20260903235130 90 222 3.0 5.0 0.00 0.00 0.00 64 1014.0
20260903234624 90 159 3.0 6.0 0.00 0.00 0.00 64 1013.8
20260903234121 90 135 4.0 5.0 0.00 0.00 0.00 64 1013.8
20260903233617 90 147 4.0 5.0 0.00 0.00 0.00 65 1014.3
20260903233112 91 175 7.0 8.0 0.00 0.00 0.00 64 1014.1
20260903232607 92 212 5.0 8.0 0.00 0.00 0.00 62 1013.8
20260903232102 92 176 6.0 8.0 0.00 0.00 0.00 59 1013.9
20260903231556 93 195 7.0 8.0 0.00 0.00 0.00 55 1013.9
20260903231051 94 187 7.0 8.0 0.00 0.00 0.00 53 1013.7
20260903230547 94 221 2.0 3.0 0.00 0.00 0.00 53 1013.6
20260903230045 94 194 6.0 9.0 0.00 0.00 0.00 53 1013.3
20260903225543 94 158 8.0 10.0 0.00 0.00 0.00 53 1013.3
20260903225039 94 175 7.0 9.0 0.00 0.00 0.00 53 1013.5
20260903224530 94 180 3.0 5.0 0.00 0.00 0.00 53 1013.3
20260903224026 94 143 8.0 10.0 0.00 0.00 0.00 53 1013.4
20260903223525 95 131 9.0 13.0 0.00 0.00 0.00 53 1013.3
20260903223024 96 199 6.0 9.0 0.00 0.00 0.00 52 1013.2
20260903222519 96 136 9.0 10.0 0.00 0.00 0.00 51 1013.1
20260903222018 98 201 10.0 11.0 0.00 0.00 0.00 50 1012.9
20260903221513 99 197 5.0 6.0 0.00 0.00 0.00 48 1013.2
20260903221010 99 224 1.0 1.0 0.00 0.00 0.00 47 1013.0
20260903220504 99 175 7.0 9.0 0.00 0.00 0.00 47 1013.0
20260903220003 98 157 4.0 6.0 0.00 0.00 0.00 49 1013.1
20260903215459 98 169 3.0 6.0 0.00 0.00 0.00 49 1013.2
20260903214957 98 183 6.0 7.0 0.00 0.00 0.00 49 1013.1
20260903214453 97 202 6.0 7.0 0.00 0.00 0.00 50 1013.1
20260903213952 97 140 9.0 10.0 0.00 0.00 0.00 49 1013.3
20260903213448 98 150 2.0 3.0 0.00 0.00 0.00 49 1013.2
20260903212944 100 186 8.0 13.0 0.00 0.00 0.00 47 1013.4
20260903212440 100 216 5.0 6.0 0.00 0.00 0.00 45 1013.2
20260903211939 99 152 3.0 3.0 0.00 0.00 0.00 46 1013.4
20260903211435 100 207 4.0 7.0 0.00 0.00 0.00 45 1013.4
20260903210932 102 125 5.0 6.0 0.00 0.00 0.00 44 1013.4
20260903210431 101 160 3.0 5.0 0.00 0.00 0.00 43 1013.2
20260903205926 101 167 3.0 3.0 0.00 0.00 0.00 44 1013.5
20260903205426 100 131 4.0 6.0 0.00 0.00 0.00 46 1013.6
20260903204920 99 207 5.0 6.0 0.00 0.00 0.00 48 1013.8
20260903204417 98 194 4.0 5.0 0.00 0.00 0.00 47 1013.7
20260903203912 98 184 5.0 7.0 0.00 0.00 0.00 48 1013.7
20260903203408 98 172 3.0 5.0 0.00 0.00 0.00 47 1013.9
20260903202907 98 175 2.0 2.0 0.00 0.00 0.00 47 1013.8
20260903202404 100 193 5.0 7.0 0.00 0.00 0.00 45 1014.3
20260903201903 101 197 0.0 0.0 0.00 0.00 0.00 45 1014.0
20260903201359 101 169 5.0 6.0 0.00 0.00 0.00 45 1014.3
20260903200857 102 141 1.0 1.0 0.00 0.00 0.00 44 1014.1
20260903200352 101 211 1.0 2.0 0.00 0.00 0.00 45 1014.4
20260903195848 101 192 5.0 6.0 0.00 0.00 0.00 45 1014.5
20260903195344 101 194 3.0 3.0 0.00 0.00 0.00 46 1014.3
20260903194838 101 193 1.0 2.0 0.00 0.00 0.00 47 1014.4
20260903194334 100 141 4.0 5.0 0.00 0.00 0.00 46 1014.4
20260903193829 99 227 5.0 7.0 0.00 0.00 0.00 47 1014.5
20260903193326 100 194 3.0 3.0 0.00 0.00 0.00 47 1014.4
20260903192821 99 221 3.0 3.0 0.00 0.00 0.00 47 1014.6
20260903192316 98 205 2.0 2.0 0.00 0.00 0.00 49 1014.7
20260903191813 98 211 4.0 6.0 0.00 0.00 0.00 48 1015.0
20260903191308 100 170 4.0 6.0 0.00 0.00 0.00 47 1014.8
20260903190808 101 190 6.0 8.0 0.00 0.00 0.00 46 1015.1
20260903190303 100 190 1.0 3.0 0.00 0.00 0.00 47 1015.0
20260903185756 97 230 1.0 1.0 0.00 0.00 0.00 52 1015.1
20260903185256 99 240 4.0 6.0 0.00 0.00 0.00 49 1015.2
20260903184753 100 225 0.0 0.0 0.00 0.00 0.00 46 1015.3
20260903184249 100 132 1.0 2.0 0.00 0.00 0.00 45 1015.4
20260903183745 99 192 4.0 5.0 0.00 0.00 0.00 46 1015.4
20260903183244 99 144 4.0 6.0 0.00 0.00 0.00 46 1015.5
20260903182743 99 160 2.0 3.0 0.00 0.00 0.00 45 1015.7
20260903182238 99 277 3.0 5.0 0.00 0.00 0.00 48 1015.6
20260903181737 99 192 4.0 5.0 0.00 0.00 0.00 46 1015.7
20260903181232 98 212 4.0 5.0 0.00 0.00 0.00 47 1016.0
20260903180728 98 228 2.0 2.0 0.00 0.00 0.00 47 1015.9
20260903180226 98 213 1.0 2.0 0.00 0.00 0.00 47 1016.0
20260903175721 98 155 6.0 8.0 0.00 0.00 0.00 47 1016.2
20260903175215 98 242 1.0 1.0 0.00 0.00 0.00 50 1016.3
20260903174714 97 134 3.0 3.0 0.00 0.00 0.00 50 1015.9
20260903174210 98 130 5.0 6.0 0.00 0.00 0.00 48 1015.9
20260903173710 98 249 2.0 2.0 0.00 0.00 0.00 50 1016.3
20260903173206 98 193 2.0 2.0 0.00 0.00 0.00 49 1016.2
20260903172700 98 240 2.0 3.0 0.00 0.00 0.00 49 1016.3
20260903172155 98 232 3.0 5.0 0.00 0.00 0.00 50 1016.3
20260903171650 98 188 1.0 2.0 0.00 0.00 0.00 49 1016.6
20260903171147 97 227 1.0 1.0 0.00 0.00 0.00 54 1016.4
20260903170645 97 207 1.0 2.0 0.00 0.00 0.00 51 1016.5
20260903170141 98 122 2.0 5.0 0.00 0.00 0.00 49 1016.7
20260903165638 98 236 0.0 0.0 0.00 0.00 0.00 54 1016.5
20260903165133 97 114 0.0 1.0 0.00 0.00 0.00 53 1016.6
20260903164628 96 142 2.0 3.0 0.00 0.00 0.00 54 1016.6
20260903164124 96 245 0.0 0.0 0.00 0.00 0.00 55 1016.7
20260903163618 95 207 1.0 1.0 0.00 0.00 0.00 56 1017.0
20260903163115 95 139 5.0 6.0 0.00 0.00 0.00 56 1016.8
20260903162611 94 129 4.0 6.0 0.00 0.00 0.00 58 1017.0
20260903162107 94 181 7.0 8.0 0.00 0.00 0.00 57 1017.1
20260903161601 92 222 2.0 3.0 0.00 0.00 0.00 60 1017.0
20260903161057 93 199 2.0 2.0 0.00 0.00 0.00 58 1017.1
20260903160556 94 167 4.0 7.0 0.00 0.00 0.00 57 1016.7
20260903160051 94 172 1.0 2.0 0.00 0.00 0.00 58 1017.0
20260903155550 94 318 1.0 2.0 0.00 0.00 0.00 61 1017.0
20260903155045 92 169 6.0 8.0 0.00 0.00 0.00 61 1016.8
20260903154542 91 209 2.0 2.0 0.00 0.00 0.00 63 1017.0
20260903154038 91 235 4.0 6.0 0.00 0.00 0.00 64 1017.1
20260903153532 90 215 2.0 2.0 0.00 0.00 0.00 66 1017.2
20260903153028 91 179 2.0 3.0 0.00 0.00 0.00 65 1017.0
20260903152524 91 233 1.0 2.0 0.00 0.00 0.00 66 1017.2
20260903152021 91 236 1.0 1.0 0.00 0.00 0.00 65 1017.3